Year,Month,Day,Hour,Minute,Value (Times are PST for temperature in C)
2016,08,22,00,00,14.00
2016,08,22,00,01,14.00
2016,08,22,00,02,14.00
2016,08,22,00,03,14.00
2016,08,22,00,04,14.00
2016,08,22,00,05,14.00
2016,08,22,00,06,14.00
2016,08,22,00,07,14.00
2016,08,22,00,08,14.00
2016,08,22,00,09,14.00
2016,08,22,00,10,14.00
2016,08,22,00,11,14.00
2016,08,22,00,12,13.90
2016,08,22,00,13,13.90
2016,08,22,00,14,13.90
2016,08,22,00,15,13.90
2016,08,22,00,16,13.90
2016,08,22,00,17,13.90
2016,08,22,00,18,13.90
2016,08,22,00,19,13.90
2016,08,22,00,20,13.90
2016,08,22,00,21,13.90
2016,08,22,00,22,13.90
2016,08,22,00,23,13.90
2016,08,22,00,24,13.90
2016,08,22,00,25,13.90
2016,08,22,00,26,13.90
2016,08,22,00,27,13.90
2016,08,22,00,28,13.90
2016,08,22,00,29,13.90
2016,08,22,00,30,13.90
2016,08,22,00,31,13.90
2016,08,22,00,32,13.90
2016,08,22,00,33,14.00
2016,08,22,00,34,14.00
2016,08,22,00,35,14.00
2016,08,22,00,36,14.00
2016,08,22,00,37,14.00
2016,08,22,00,38,14.00
2016,08,22,00,39,14.00
2016,08,22,00,40,14.00
2016,08,22,00,41,14.10
2016,08,22,00,42,14.10
2016,08,22,00,43,14.10
2016,08,22,00,44,14.10
2016,08,22,00,45,14.10
2016,08,22,00,46,14.10
2016,08,22,00,47,14.10
2016,08,22,00,48,14.20
2016,08,22,00,49,14.20
2016,08,22,00,50,14.20
2016,08,22,00,51,14.20
2016,08,22,00,52,14.20
2016,08,22,00,53,14.20
2016,08,22,00,54,14.20
2016,08,22,00,55,14.20
2016,08,22,00,56,14.10
2016,08,22,00,57,14.10
2016,08,22,00,58,14.10
2016,08,22,00,59,14.10
2016,08,22,01,00,14.10
2016,08,22,01,01,14.10
2016,08,22,01,02,14.10
2016,08,22,01,03,14.10
2016,08,22,01,04,14.00
2016,08,22,01,05,14.00
2016,08,22,01,06,14.00
2016,08,22,01,07,14.00
2016,08,22,01,08,14.00
2016,08,22,01,09,14.00
2016,08,22,01,10,13.90
2016,08,22,01,11,13.90
2016,08,22,01,12,13.90
2016,08,22,01,13,13.90
2016,08,22,01,14,13.90
2016,08,22,01,15,13.90
2016,08,22,01,16,13.90
2016,08,22,01,17,13.90
2016,08,22,01,18,13.90
2016,08,22,01,19,13.80
2016,08,22,01,20,13.80
2016,08,22,01,21,13.80
2016,08,22,01,22,13.80
2016,08,22,01,23,13.80
2016,08,22,01,24,13.80
2016,08,22,01,25,13.80
2016,08,22,01,26,13.80
2016,08,22,01,27,13.80
2016,08,22,01,28,13.70
2016,08,22,01,29,13.70
2016,08,22,01,30,13.70
2016,08,22,01,31,13.70
2016,08,22,01,32,13.70
2016,08,22,01,33,13.70
2016,08,22,01,34,13.70
2016,08,22,01,35,13.70
2016,08,22,01,36,13.70
2016,08,22,01,37,13.70
2016,08,22,01,38,13.70
2016,08,22,01,39,13.70
2016,08,22,01,40,13.70
2016,08,22,01,41,13.70
2016,08,22,01,42,13.70
2016,08,22,01,43,13.70
2016,08,22,01,44,13.70
2016,08,22,01,45,13.70
2016,08,22,01,46,13.70
2016,08,22,01,47,13.70
2016,08,22,01,48,13.70
2016,08,22,01,49,13.70
2016,08,22,01,50,13.70
2016,08,22,01,51,13.60
2016,08,22,01,52,13.60
2016,08,22,01,53,13.60
2016,08,22,01,54,13.60
2016,08,22,01,55,13.60
2016,08,22,01,56,13.60
2016,08,22,01,57,13.60
2016,08,22,01,58,13.60
2016,08,22,01,59,13.60
2016,08,22,02,00,13.60
2016,08,22,02,01,13.60
2016,08,22,02,02,13.60
2016,08,22,02,03,13.60
2016,08,22,02,04,13.60
2016,08,22,02,05,13.60
2016,08,22,02,06,13.60
2016,08,22,02,07,13.60
2016,08,22,02,08,13.60
2016,08,22,02,09,13.60
2016,08,22,02,10,13.60
2016,08,22,02,11,13.50
2016,08,22,02,12,13.50
2016,08,22,02,13,13.60
2016,08,22,02,14,13.60
2016,08,22,02,15,13.60
2016,08,22,02,16,13.60
2016,08,22,02,17,13.60
2016,08,22,02,18,13.60
2016,08,22,02,19,13.60
2016,08,22,02,20,13.60
2016,08,22,02,21,13.60
2016,08,22,02,22,13.60
2016,08,22,02,23,13.60
2016,08,22,02,24,13.60
2016,08,22,02,25,13.60
2016,08,22,02,26,13.60
2016,08,22,02,27,13.60
2016,08,22,02,28,13.60
2016,08,22,02,29,13.60
2016,08,22,02,30,13.60
2016,08,22,02,31,13.60
2016,08,22,02,32,13.60
2016,08,22,02,33,13.60
2016,08,22,02,34,13.60
2016,08,22,02,35,13.60
2016,08,22,02,36,13.60
2016,08,22,02,37,13.60
2016,08,22,02,38,13.60
2016,08,22,02,39,13.60
2016,08,22,02,40,13.60
2016,08,22,02,41,13.60
2016,08,22,02,42,13.60
2016,08,22,02,43,13.60
2016,08,22,02,44,13.60
2016,08,22,02,45,13.60
2016,08,22,02,46,13.60
2016,08,22,02,47,13.60
2016,08,22,02,48,13.60
2016,08,22,02,49,13.60
2016,08,22,02,50,13.60
2016,08,22,02,51,13.60
2016,08,22,02,52,13.60
2016,08,22,02,53,13.60
2016,08,22,02,54,13.60
2016,08,22,02,55,13.60
2016,08,22,02,56,13.60
2016,08,22,02,57,13.60
2016,08,22,02,58,13.60
2016,08,22,02,59,13.60
2016,08,22,03,00,13.60
2016,08,22,03,01,13.50
2016,08,22,03,02,13.50
2016,08,22,03,03,13.50
2016,08,22,03,04,13.50
2016,08,22,03,05,13.50
2016,08,22,03,06,13.50
2016,08,22,03,07,13.50
2016,08,22,03,08,13.40
2016,08,22,03,09,13.40
2016,08,22,03,10,13.40
2016,08,22,03,11,13.40
2016,08,22,03,12,13.40
2016,08,22,03,13,13.40
2016,08,22,03,14,13.30
2016,08,22,03,15,13.30
2016,08,22,03,16,13.30
2016,08,22,03,17,13.30
2016,08,22,03,18,13.30
2016,08,22,03,19,13.30
2016,08,22,03,20,13.30
2016,08,22,03,21,13.30
2016,08,22,03,22,13.30
2016,08,22,03,23,13.30
2016,08,22,03,24,13.30
2016,08,22,03,25,13.30
2016,08,22,03,26,13.30
2016,08,22,03,27,13.30
2016,08,22,03,28,13.30
2016,08,22,03,29,13.30
2016,08,22,03,30,13.30
2016,08,22,03,31,13.30
2016,08,22,03,32,13.30
2016,08,22,03,33,13.30
2016,08,22,03,34,13.30
2016,08,22,03,35,13.30
2016,08,22,03,36,13.30
2016,08,22,03,37,13.30
2016,08,22,03,38,13.30
2016,08,22,03,39,13.30
2016,08,22,03,40,13.30
2016,08,22,03,41,13.30
2016,08,22,03,42,13.30
2016,08,22,03,43,13.30
2016,08,22,03,44,13.30
2016,08,22,03,45,13.30
2016,08,22,03,46,13.30
2016,08,22,03,47,13.30
2016,08,22,03,48,13.30
2016,08,22,03,49,13.30
2016,08,22,03,50,13.30
2016,08,22,03,51,13.30
2016,08,22,03,52,13.30
2016,08,22,03,53,13.30
2016,08,22,03,54,13.30
2016,08,22,03,55,13.30
2016,08,22,03,56,13.30
2016,08,22,03,57,13.30
2016,08,22,03,58,13.30
2016,08,22,03,59,13.30
2016,08,22,04,00,13.30
2016,08,22,04,01,13.20
2016,08,22,04,02,13.20
2016,08,22,04,03,13.20
2016,08,22,04,04,13.20
2016,08,22,04,05,13.20
2016,08,22,04,06,13.20
2016,08,22,04,07,13.20
2016,08,22,04,08,13.20
2016,08,22,04,09,13.30
2016,08,22,04,10,13.30
2016,08,22,04,11,13.30
2016,08,22,04,12,13.20
2016,08,22,04,13,13.20
2016,08,22,04,14,13.20
2016,08,22,04,15,13.20
2016,08,22,04,16,13.20
2016,08,22,04,17,13.10
2016,08,22,04,18,13.10
2016,08,22,04,19,13.10
2016,08,22,04,20,13.00
2016,08,22,04,21,13.00
2016,08,22,04,22,13.00
2016,08,22,04,23,12.90
2016,08,22,04,24,12.90
2016,08,22,04,25,12.90
2016,08,22,04,26,12.80
2016,08,22,04,27,12.80
2016,08,22,04,28,12.80
2016,08,22,04,29,12.80
2016,08,22,04,30,12.80
2016,08,22,04,31,12.80
2016,08,22,04,32,12.80
2016,08,22,04,33,12.80
2016,08,22,04,34,12.80
2016,08,22,04,35,12.80
2016,08,22,04,36,12.80
2016,08,22,04,37,12.80
2016,08,22,04,38,12.80
2016,08,22,04,39,12.70
2016,08,22,04,40,12.70
2016,08,22,04,41,12.70
2016,08,22,04,42,12.60
2016,08,22,04,43,12.60
2016,08,22,04,44,12.60
2016,08,22,04,45,12.60
2016,08,22,04,46,12.60
2016,08,22,04,47,12.60
2016,08,22,04,48,12.60
2016,08,22,04,49,12.60
2016,08,22,04,50,12.50
2016,08,22,04,51,12.50
2016,08,22,04,52,12.50
2016,08,22,04,53,12.50
2016,08,22,04,54,12.40
2016,08,22,04,55,12.40
2016,08,22,04,56,12.40
2016,08,22,04,57,12.30
2016,08,22,04,58,12.30
2016,08,22,04,59,12.30
2016,08,22,05,00,12.30
2016,08,22,05,01,12.30
2016,08,22,05,02,12.20
2016,08,22,05,03,12.20
2016,08,22,05,04,12.10
2016,08,22,05,05,12.10
2016,08,22,05,06,12.10
2016,08,22,05,07,12.00
2016,08,22,05,08,12.00
2016,08,22,05,09,12.00
2016,08,22,05,10,12.00
2016,08,22,05,11,12.00
2016,08,22,05,12,11.90
2016,08,22,05,13,11.90
2016,08,22,05,14,11.90
2016,08,22,05,15,11.80
2016,08,22,05,16,11.80
2016,08,22,05,17,11.80
2016,08,22,05,18,11.80
2016,08,22,05,19,11.80
2016,08,22,05,20,11.80
2016,08,22,05,21,11.80
2016,08,22,05,22,11.80
2016,08,22,05,23,11.80
2016,08,22,05,24,11.80
2016,08,22,05,25,11.70
2016,08,22,05,26,11.70
2016,08,22,05,27,11.70
2016,08,22,05,28,11.70
2016,08,22,05,29,11.60
2016,08,22,05,30,11.60
2016,08,22,05,31,11.60
2016,08,22,05,32,11.60
2016,08,22,05,33,11.60
2016,08,22,05,34,11.60
2016,08,22,05,35,11.60
2016,08,22,05,36,11.60
2016,08,22,05,37,11.60
2016,08,22,05,38,11.60
2016,08,22,05,39,11.40
2016,08,22,05,40,11.40
2016,08,22,05,41,11.40
2016,08,22,05,42,11.40
2016,08,22,05,43,11.40
2016,08,22,05,44,11.40
2016,08,22,05,45,11.50
2016,08,22,05,46,11.60
2016,08,22,05,47,11.60
2016,08,22,05,48,11.60
2016,08,22,05,49,11.60
2016,08,22,05,50,11.60
2016,08,22,05,51,11.50
2016,08,22,05,52,11.40
2016,08,22,05,53,11.40
2016,08,22,05,54,11.40
2016,08,22,05,55,11.30
2016,08,22,05,56,11.20
2016,08,22,05,57,11.20
2016,08,22,05,58,11.10
2016,08,22,05,59,11.10
2016,08,22,06,00,11.10
2016,08,22,06,01,11.10
2016,08,22,06,02,11.10
2016,08,22,06,03,11.10
2016,08,22,06,04,10.90
2016,08,22,06,05,10.90
2016,08,22,06,06,10.90
2016,08,22,06,07,10.90
2016,08,22,06,08,10.90
2016,08,22,06,09,10.90
2016,08,22,06,10,10.90
2016,08,22,06,11,10.90
2016,08,22,06,12,10.90
2016,08,22,06,13,10.90
2016,08,22,06,14,10.80
2016,08,22,06,15,10.80
2016,08,22,06,16,10.80
2016,08,22,06,17,10.80
2016,08,22,06,18,10.70
2016,08,22,06,19,10.70
2016,08,22,06,20,10.70
2016,08,22,06,21,10.70
2016,08,22,06,22,10.70
2016,08,22,06,23,10.60
2016,08,22,06,24,10.60
2016,08,22,06,25,10.60
2016,08,22,06,26,10.60
2016,08,22,06,27,10.60
2016,08,22,06,28,10.60
2016,08,22,06,29,10.60
2016,08,22,06,30,10.60
2016,08,22,06,31,10.60
2016,08,22,06,32,10.60
2016,08,22,06,33,10.60
2016,08,22,06,34,10.60
2016,08,22,06,35,10.60
2016,08,22,06,36,10.60
2016,08,22,06,37,10.60
2016,08,22,06,38,10.60
2016,08,22,06,39,10.50
2016,08,22,06,40,10.50
2016,08,22,06,41,10.40
2016,08,22,06,42,10.40
2016,08,22,06,43,10.40
2016,08,22,06,44,10.40
2016,08,22,06,45,10.40
2016,08,22,06,46,10.40
2016,08,22,06,47,10.40
2016,08,22,06,48,10.40
2016,08,22,06,49,10.40
2016,08,22,06,50,10.40
2016,08,22,06,51,10.40
2016,08,22,06,52,10.40
2016,08,22,06,53,10.50
2016,08,22,06,54,10.60
2016,08,22,06,55,10.60
2016,08,22,06,56,10.60
2016,08,22,06,57,10.60
2016,08,22,06,58,10.70
2016,08,22,06,59,10.80
2016,08,22,07,00,10.80
2016,08,22,07,01,10.80
2016,08,22,07,02,10.80
2016,08,22,07,03,10.80
2016,08,22,07,04,10.90
2016,08,22,07,05,10.90
2016,08,22,07,06,10.90
2016,08,22,07,07,10.90
2016,08,22,07,08,10.90
2016,08,22,07,09,11.00
2016,08,22,07,10,11.10
2016,08,22,07,11,11.10
2016,08,22,07,12,11.10
2016,08,22,07,13,11.10
2016,08,22,07,14,11.20
2016,08,22,07,15,11.20
2016,08,22,07,16,11.30
2016,08,22,07,17,11.40
2016,08,22,07,18,11.50
2016,08,22,07,19,11.60
2016,08,22,07,20,11.70
2016,08,22,07,21,11.80
2016,08,22,07,22,11.80
2016,08,22,07,23,11.90
2016,08,22,07,24,12.00
2016,08,22,07,25,12.10
2016,08,22,07,26,12.20
2016,08,22,07,27,12.20
2016,08,22,07,28,12.30
2016,08,22,07,29,12.30
2016,08,22,07,30,12.40
2016,08,22,07,31,12.50
2016,08,22,07,32,12.50
2016,08,22,07,33,12.60
2016,08,22,07,34,12.60
2016,08,22,07,35,12.70
2016,08,22,07,36,12.80
2016,08,22,07,37,12.80
2016,08,22,07,38,12.80
2016,08,22,07,39,12.90
2016,08,22,07,40,13.00
2016,08,22,07,41,13.00
2016,08,22,07,42,13.10
2016,08,22,07,43,13.20
2016,08,22,07,44,13.30
2016,08,22,07,45,13.40
2016,08,22,07,46,13.50
2016,08,22,07,47,13.60
2016,08,22,07,48,13.60
2016,08,22,07,49,13.70
2016,08,22,07,50,13.70
2016,08,22,07,51,13.80
2016,08,22,07,52,13.90
2016,08,22,07,53,14.00
2016,08,22,07,54,14.10
2016,08,22,07,55,14.20
2016,08,22,07,56,14.20
2016,08,22,07,57,14.10
2016,08,22,07,58,14.10
2016,08,22,07,59,14.10
2016,08,22,08,00,14.10
2016,08,22,08,01,14.10
2016,08,22,08,02,14.10
2016,08,22,08,03,14.10
2016,08,22,08,04,14.10
2016,08,22,08,05,14.10
2016,08,22,08,06,14.20
2016,08,22,08,07,14.20
2016,08,22,08,08,14.30
2016,08,22,08,09,14.40
2016,08,22,08,10,14.50
2016,08,22,08,11,14.60
2016,08,22,08,12,14.60
2016,08,22,08,13,14.80
2016,08,22,08,14,14.90
2016,08,22,08,15,15.00
2016,08,22,08,16,15.10
2016,08,22,08,17,15.20
2016,08,22,08,18,15.20
2016,08,22,08,19,15.30
2016,08,22,08,20,15.40
2016,08,22,08,21,15.50
2016,08,22,08,22,15.60
2016,08,22,08,23,15.70
2016,08,22,08,24,15.80
2016,08,22,08,25,15.90
2016,08,22,08,26,15.90
2016,08,22,08,27,15.90
2016,08,22,08,28,16.10
2016,08,22,08,29,16.10
2016,08,22,08,30,16.10
2016,08,22,08,31,16.10
2016,08,22,08,32,16.10
2016,08,22,08,33,16.10
2016,08,22,08,34,16.10
2016,08,22,08,35,16.10
2016,08,22,08,36,16.10
2016,08,22,08,37,16.10
2016,08,22,08,38,16.20
2016,08,22,08,39,16.20
2016,08,22,08,40,16.20
2016,08,22,08,41,16.20
2016,08,22,08,42,16.10
2016,08,22,08,43,16.10
2016,08,22,08,44,16.10
2016,08,22,08,45,16.00
2016,08,22,08,46,15.90
2016,08,22,08,47,15.80
2016,08,22,08,48,15.80
2016,08,22,08,49,15.70
2016,08,22,08,50,15.70
2016,08,22,08,51,15.60
2016,08,22,08,52,15.60
2016,08,22,08,53,15.60
2016,08,22,08,54,15.60
2016,08,22,08,55,15.70
2016,08,22,08,56,15.80
2016,08,22,08,57,15.90
2016,08,22,08,58,16.10
2016,08,22,08,59,16.10
2016,08,22,09,00,16.20
2016,08,22,09,01,16.30
2016,08,22,09,02,16.40
2016,08,22,09,03,16.40
2016,08,22,09,04,16.50
2016,08,22,09,05,16.60
2016,08,22,09,06,16.60
2016,08,22,09,07,16.60
2016,08,22,09,08,16.50
2016,08,22,09,09,16.40
2016,08,22,09,10,16.40
2016,08,22,09,11,16.40
2016,08,22,09,12,16.40
2016,08,22,09,13,16.40
2016,08,22,09,14,16.40
2016,08,22,09,15,16.30
2016,08,22,09,16,16.30
2016,08,22,09,17,16.20
2016,08,22,09,18,16.20
2016,08,22,09,19,16.30
2016,08,22,09,20,16.30
2016,08,22,09,21,16.50
2016,08,22,09,22,16.60
2016,08,22,09,23,16.70
2016,08,22,09,24,16.80
2016,08,22,09,25,16.90
2016,08,22,09,26,16.90
2016,08,22,09,27,17.00
2016,08,22,09,28,17.10
2016,08,22,09,29,17.10
2016,08,22,09,30,17.10
2016,08,22,09,31,17.20
2016,08,22,09,32,17.30
2016,08,22,09,33,17.40
2016,08,22,09,34,17.50
2016,08,22,09,35,17.70
2016,08,22,09,36,17.80
2016,08,22,09,37,17.90
2016,08,22,09,38,17.80
2016,08,22,09,39,17.70
2016,08,22,09,40,17.50
2016,08,22,09,41,17.40
2016,08,22,09,42,17.20
2016,08,22,09,43,17.10
2016,08,22,09,44,17.10
2016,08,22,09,45,17.10
2016,08,22,09,46,17.20
2016,08,22,09,47,17.30
2016,08,22,09,48,17.30
2016,08,22,09,49,17.20
2016,08,22,09,50,17.20
2016,08,22,09,51,17.10
2016,08,22,09,52,17.10
2016,08,22,09,53,17.00
2016,08,22,09,54,16.90
2016,08,22,09,55,16.80
2016,08,22,09,56,16.70
2016,08,22,09,57,16.60
2016,08,22,09,58,16.50
2016,08,22,09,59,16.40
2016,08,22,10,00,16.40
2016,08,22,10,01,16.40
2016,08,22,10,02,16.40
2016,08,22,10,03,16.40
2016,08,22,10,04,16.40
2016,08,22,10,05,16.30
2016,08,22,10,06,16.30
2016,08,22,10,07,16.30
2016,08,22,10,08,16.30
2016,08,22,10,09,16.40
2016,08,22,10,10,16.40
2016,08,22,10,11,16.40
2016,08,22,10,12,16.40
2016,08,22,10,13,16.40
2016,08,22,10,14,16.40
2016,08,22,10,15,16.40
2016,08,22,10,16,16.60
2016,08,22,10,17,16.60
2016,08,22,10,18,16.60
2016,08,22,10,19,16.70
2016,08,22,10,20,16.80
2016,08,22,10,21,16.90
2016,08,22,10,22,17.10
2016,08,22,10,23,17.20
2016,08,22,10,24,17.20
2016,08,22,10,25,17.30
2016,08,22,10,26,17.30
2016,08,22,10,27,17.40
2016,08,22,10,28,17.40
2016,08,22,10,29,17.40
2016,08,22,10,30,17.30
2016,08,22,10,31,17.20
2016,08,22,10,32,17.20
2016,08,22,10,33,17.20
2016,08,22,10,34,17.10
2016,08,22,10,35,17.00
2016,08,22,10,36,16.80
2016,08,22,10,37,16.70
2016,08,22,10,38,16.60
2016,08,22,10,39,16.70
2016,08,22,10,40,16.70
2016,08,22,10,41,16.70
2016,08,22,10,42,16.70
2016,08,22,10,43,16.70
2016,08,22,10,44,16.70
2016,08,22,10,45,16.70
2016,08,22,10,46,16.70
2016,08,22,10,47,16.70
2016,08,22,10,48,16.80
2016,08,22,10,49,16.80
2016,08,22,10,50,16.80
2016,08,22,10,51,16.80
2016,08,22,10,52,16.80
2016,08,22,10,53,16.80
2016,08,22,10,54,16.70
2016,08,22,10,55,16.70
2016,08,22,10,56,16.90
2016,08,22,10,57,17.00
2016,08,22,10,58,17.10
2016,08,22,10,59,17.10
2016,08,22,11,00,17.10
2016,08,22,11,01,17.10
2016,08,22,11,02,17.00
2016,08,22,11,03,17.00
2016,08,22,11,04,17.00
2016,08,22,11,05,17.00
2016,08,22,11,06,17.00
2016,08,22,11,07,17.00
2016,08,22,11,08,16.90
2016,08,22,11,09,16.90
2016,08,22,11,10,16.90
2016,08,22,11,11,16.90
2016,08,22,11,12,17.10
2016,08,22,11,13,17.20
2016,08,22,11,14,17.20
2016,08,22,11,15,17.10
2016,08,22,11,16,17.10
2016,08,22,11,17,17.10
2016,08,22,11,18,17.00
2016,08,22,11,19,16.90
2016,08,22,11,20,17.00
2016,08,22,11,21,17.00
2016,08,22,11,22,17.00
2016,08,22,11,23,16.90
2016,08,22,11,24,17.00
2016,08,22,11,25,17.10
2016,08,22,11,26,17.10
2016,08,22,11,27,17.30
2016,08,22,11,28,17.50
2016,08,22,11,29,17.50
2016,08,22,11,30,17.60
2016,08,22,11,31,17.60
2016,08,22,11,32,17.80
2016,08,22,11,33,17.80
2016,08,22,11,34,17.80
2016,08,22,11,35,17.80
2016,08,22,11,36,17.90
2016,08,22,11,37,17.80
2016,08,22,11,38,17.80
2016,08,22,11,39,17.80
2016,08,22,11,40,17.80
2016,08,22,11,41,17.80
2016,08,22,11,42,17.90
2016,08,22,11,43,17.80
2016,08,22,11,44,17.70
2016,08,22,11,45,17.70
2016,08,22,11,46,17.70
2016,08,22,11,47,17.70
2016,08,22,11,48,17.70
2016,08,22,11,49,17.70
2016,08,22,11,50,17.70
2016,08,22,11,51,17.70
2016,08,22,11,52,17.80
2016,08,22,11,53,17.80
2016,08,22,11,54,17.90
2016,08,22,11,55,17.90
2016,08,22,11,56,18.00
2016,08,22,11,57,18.00
2016,08,22,11,58,17.80
2016,08,22,11,59,17.70
2016,08,22,12,00,17.60
2016,08,22,12,01,17.70
2016,08,22,12,02,17.70
2016,08,22,12,03,17.70
2016,08,22,12,04,17.80
2016,08,22,12,05,17.80
2016,08,22,12,06,17.70
2016,08,22,12,07,17.60
2016,08,22,12,08,17.60
2016,08,22,12,09,17.70
2016,08,22,12,10,17.70
2016,08,22,12,11,17.70
2016,08,22,12,12,17.70
2016,08,22,12,13,17.80
2016,08,22,12,14,17.90
2016,08,22,12,15,17.90
2016,08,22,12,16,18.00
2016,08,22,12,17,18.20
2016,08,22,12,18,18.20
2016,08,22,12,19,18.20
2016,08,22,12,20,18.10
2016,08,22,12,21,18.00
2016,08,22,12,22,17.90
2016,08,22,12,23,17.90
2016,08,22,12,24,17.90
2016,08,22,12,25,17.80
2016,08,22,12,26,17.80
2016,08,22,12,27,17.80
2016,08,22,12,28,17.90
2016,08,22,12,29,17.90
2016,08,22,12,30,17.90
2016,08,22,12,31,17.90
2016,08,22,12,32,17.80
2016,08,22,12,33,17.90
2016,08,22,12,34,18.00
2016,08,22,12,35,18.20
2016,08,22,12,36,18.20
2016,08,22,12,37,18.20
2016,08,22,12,38,18.30
2016,08,22,12,39,18.40
2016,08,22,12,40,18.40
2016,08,22,12,41,18.40
2016,08,22,12,42,18.30
2016,08,22,12,43,18.20
2016,08,22,12,44,18.20
2016,08,22,12,45,18.20
2016,08,22,12,46,18.10
2016,08,22,12,47,18.10
2016,08,22,12,48,18.20
2016,08,22,12,49,18.30
2016,08,22,12,50,18.40
2016,08,22,12,51,18.60
2016,08,22,12,52,18.70
2016,08,22,12,53,18.80
2016,08,22,12,54,18.70
2016,08,22,12,55,18.60
2016,08,22,12,56,18.50
2016,08,22,12,57,18.50
2016,08,22,12,58,18.40
2016,08,22,12,59,18.40
2016,08,22,13,00,18.50
2016,08,22,13,01,18.60
2016,08,22,13,02,18.70
2016,08,22,13,03,18.70
2016,08,22,13,04,18.80
2016,08,22,13,05,18.80
2016,08,22,13,06,18.70
2016,08,22,13,07,18.80
2016,08,22,13,08,18.80
2016,08,22,13,09,18.80
2016,08,22,13,10,18.80
2016,08,22,13,11,18.80
2016,08,22,13,12,18.90
2016,08,22,13,13,18.90
2016,08,22,13,14,18.90
2016,08,22,13,15,18.90
2016,08,22,13,16,18.90
2016,08,22,13,17,19.10
2016,08,22,13,18,19.10
2016,08,22,13,19,19.10
2016,08,22,13,20,19.10
2016,08,22,13,21,19.10
2016,08,22,13,22,19.10
2016,08,22,13,23,19.10
2016,08,22,13,24,18.90
2016,08,22,13,25,18.90
2016,08,22,13,26,18.90
2016,08,22,13,27,19.00
2016,08,22,13,28,19.10
2016,08,22,13,29,19.30
2016,08,22,13,30,19.30
2016,08,22,13,31,19.20
2016,08,22,13,32,19.10
2016,08,22,13,33,18.90
2016,08,22,13,34,18.90
2016,08,22,13,35,18.90
2016,08,22,13,36,18.80
2016,08,22,13,37,18.70
2016,08,22,13,38,18.70
2016,08,22,13,39,18.80
2016,08,22,13,40,18.90
2016,08,22,13,41,18.90
2016,08,22,13,42,19.00
2016,08,22,13,43,19.00
2016,08,22,13,44,19.10
2016,08,22,13,45,19.10
2016,08,22,13,46,19.20
2016,08,22,13,47,19.30
2016,08,22,13,48,19.40
2016,08,22,13,49,19.50
2016,08,22,13,50,19.60
2016,08,22,13,51,19.60
2016,08,22,13,52,19.30
2016,08,22,13,53,19.10
2016,08,22,13,54,19.00
2016,08,22,13,55,18.90
2016,08,22,13,56,18.90
2016,08,22,13,57,18.80
2016,08,22,13,58,18.80
2016,08,22,13,59,18.70
2016,08,22,14,00,18.70
2016,08,22,14,01,18.80
2016,08,22,14,02,19.00
2016,08,22,14,03,19.10
2016,08,22,14,04,19.10
2016,08,22,14,05,19.20
2016,08,22,14,06,19.30
2016,08,22,14,07,19.30
2016,08,22,14,08,19.20
2016,08,22,14,09,19.20
2016,08,22,14,10,19.10
2016,08,22,14,11,19.10
2016,08,22,14,12,19.10
2016,08,22,14,13,19.20
2016,08,22,14,14,19.30
2016,08,22,14,15,19.30
2016,08,22,14,16,19.30
2016,08,22,14,17,19.40
2016,08,22,14,18,19.50
2016,08,22,14,19,19.50
2016,08,22,14,20,19.40
2016,08,22,14,21,19.40
2016,08,22,14,22,19.50
2016,08,22,14,23,19.50
2016,08,22,14,24,19.50
2016,08,22,14,25,19.40
2016,08,22,14,26,19.20
2016,08,22,14,27,19.10
2016,08,22,14,28,19.10
2016,08,22,14,29,19.10
2016,08,22,14,30,19.10
2016,08,22,14,31,18.90
2016,08,22,14,32,18.80
2016,08,22,14,33,18.80
2016,08,22,14,34,18.60
2016,08,22,14,35,18.60
2016,08,22,14,36,18.50
2016,08,22,14,37,18.60
2016,08,22,14,38,18.60
2016,08,22,14,39,18.60
2016,08,22,14,40,18.50
2016,08,22,14,41,18.40
2016,08,22,14,42,18.50
2016,08,22,14,43,18.50
2016,08,22,14,44,18.50
2016,08,22,14,45,18.50
2016,08,22,14,46,18.50
2016,08,22,14,47,18.50
2016,08,22,14,48,18.60
2016,08,22,14,49,18.70
2016,08,22,14,50,18.80
2016,08,22,14,51,18.90
2016,08,22,14,52,19.00
2016,08,22,14,53,19.10
2016,08,22,14,54,19.10
2016,08,22,14,55,19.10
2016,08,22,14,56,19.00
2016,08,22,14,57,18.90
2016,08,22,14,58,18.90
2016,08,22,14,59,18.90
2016,08,22,15,00,18.90
2016,08,22,15,01,18.90
2016,08,22,15,02,18.90
2016,08,22,15,03,18.80
2016,08,22,15,04,18.80
2016,08,22,15,05,18.90
2016,08,22,15,06,18.90
2016,08,22,15,07,18.90
2016,08,22,15,08,19.00
2016,08,22,15,09,19.10
2016,08,22,15,10,19.10
2016,08,22,15,11,19.30
2016,08,22,15,12,19.30
2016,08,22,15,13,19.40
2016,08,22,15,14,19.50
2016,08,22,15,15,19.60
2016,08,22,15,16,19.60
2016,08,22,15,17,19.50
2016,08,22,15,18,19.40
2016,08,22,15,19,19.20
2016,08,22,15,20,19.10
2016,08,22,15,21,19.00
2016,08,22,15,22,19.00
2016,08,22,15,23,19.10
2016,08,22,15,24,19.10
2016,08,22,15,25,19.10
2016,08,22,15,26,19.20
2016,08,22,15,27,19.30
2016,08,22,15,28,19.40
2016,08,22,15,29,19.30
2016,08,22,15,30,19.30
2016,08,22,15,31,19.10
2016,08,22,15,32,19.10
2016,08,22,15,33,19.10
2016,08,22,15,34,19.10
2016,08,22,15,35,19.10
2016,08,22,15,36,19.10
2016,08,22,15,37,19.10
2016,08,22,15,38,19.30
2016,08,22,15,39,19.50
2016,08,22,15,40,19.70
2016,08,22,15,41,19.70
2016,08,22,15,42,19.70
2016,08,22,15,43,19.60
2016,08,22,15,44,19.60
2016,08,22,15,45,19.70
2016,08,22,15,46,19.80
2016,08,22,15,47,19.80
2016,08,22,15,48,19.90
2016,08,22,15,49,20.00
2016,08,22,15,50,20.10
2016,08,22,15,51,20.10
2016,08,22,15,52,20.10
2016,08,22,15,53,20.00
2016,08,22,15,54,20.10
2016,08,22,15,55,20.00
2016,08,22,15,56,19.90
2016,08,22,15,57,19.90
2016,08,22,15,58,20.00
2016,08,22,15,59,20.10
2016,08,22,16,00,20.10
2016,08,22,16,01,20.10
2016,08,22,16,02,20.00
2016,08,22,16,03,19.90
2016,08,22,16,04,19.90
2016,08,22,16,05,19.90
2016,08,22,16,06,19.80
2016,08,22,16,07,19.80
2016,08,22,16,08,19.90
2016,08,22,16,09,19.90
2016,08,22,16,10,19.90
2016,08,22,16,11,19.90
2016,08,22,16,12,19.90
2016,08,22,16,13,20.00
2016,08,22,16,14,20.10
2016,08,22,16,15,20.20
2016,08,22,16,16,20.20
2016,08,22,16,17,20.30
2016,08,22,16,18,20.30
2016,08,22,16,19,20.20
2016,08,22,16,20,20.20
2016,08,22,16,21,20.30
2016,08,22,16,22,20.40
2016,08,22,16,23,20.40
2016,08,22,16,24,20.30
2016,08,22,16,25,20.20
2016,08,22,16,26,20.20
2016,08,22,16,27,20.20
2016,08,22,16,28,20.00
2016,08,22,16,29,19.90
2016,08,22,16,30,19.80
2016,08,22,16,31,19.80
2016,08,22,16,32,19.70
2016,08,22,16,33,19.70
2016,08,22,16,34,19.70
2016,08,22,16,35,19.70
2016,08,22,16,36,19.70
2016,08,22,16,37,19.80
2016,08,22,16,38,19.80
2016,08,22,16,39,19.90
2016,08,22,16,40,19.80
2016,08,22,16,41,19.80
2016,08,22,16,42,19.80
2016,08,22,16,43,19.80
2016,08,22,16,44,19.80
2016,08,22,16,45,19.80
2016,08,22,16,46,19.90
2016,08,22,16,47,19.90
2016,08,22,16,48,19.90
2016,08,22,16,49,19.80
2016,08,22,16,50,19.80
2016,08,22,16,51,19.70
2016,08,22,16,52,19.80
2016,08,22,16,53,19.80
2016,08,22,16,54,19.90
2016,08,22,16,55,19.90
2016,08,22,16,56,20.00
2016,08,22,16,57,20.10
2016,08,22,16,58,19.90
2016,08,22,16,59,19.90
2016,08,22,17,00,19.90
2016,08,22,17,01,19.90
2016,08,22,17,02,20.00
2016,08,22,17,03,20.10
2016,08,22,17,04,20.20
2016,08,22,17,05,20.20
2016,08,22,17,06,20.20
2016,08,22,17,07,20.20
2016,08,22,17,08,20.10
2016,08,22,17,09,19.90
2016,08,22,17,10,20.00
2016,08,22,17,11,20.10
2016,08,22,17,12,20.20
2016,08,22,17,13,20.20
2016,08,22,17,14,20.20
2016,08,22,17,15,20.20
2016,08,22,17,16,20.20
2016,08,22,17,17,20.20
2016,08,22,17,18,20.20
2016,08,22,17,19,20.20